TimeEDT,TemperatureF,Dew PointF,Humidity,Sea Level PressureIn,VisibilityMPH,Wind Direction,Wind SpeedMPH,Gust SpeedMPH,PrecipitationIn,Events,Conditions,WindDirDegrees,DateUTC
12:51 AM,68.0,64.0,87,30.08,10.0,Calm,Calm,-,N/A,,Clear,0,2013-05-31 04:51:00
1:51 AM,66.9,64.0,90,30.08,10.0,Calm,Calm,-,N/A,,Clear,0,2013-05-31 05:51:00
2:51 AM,64.9,63.0,93,30.08,7.0,Calm,Calm,-,N/A,,Clear,0,2013-05-31 06:51:00
3:51 AM,64.9,63.0,93,30.08,8.0,Calm,Calm,-,N/A,Fog,Shallow Fog,0,2013-05-31 07:51:00
4:51 AM,64.0,63.0,96,30.09,8.0,Calm,Calm,-,N/A,Fog,Shallow Fog,0,2013-05-31 08:51:00
5:51 AM,64.0,62.1,93,30.09,4.0,Calm,Calm,-,N/A,Fog,Shallow Fog,0,2013-05-31 09:51:00
6:51 AM,68.0,64.9,90,30.11,6.0,Calm,Calm,-,N/A,,Partly Cloudy,0,2013-05-31 10:51:00
7:51 AM,72.0,66.9,84,30.11,10.0,South,3.5,-,N/A,,Partly Cloudy,170,2013-05-31 11:51:00
8:51 AM,75.9,66.9,74,30.11,10.0,SSE,3.5,-,N/A,,Partly Cloudy,150,2013-05-31 12:51:00
9:51 AM,79.0,66.9,66,30.09,10.0,South,6.9,-,N/A,,Partly Cloudy,180,2013-05-31 13:51:00
10:51 AM,81.0,66.0,60,30.08,10.0,SSW,4.6,-,N/A,,Partly Cloudy,200,2013-05-31 14:51:00
11:51 AM,86.0,68.0,55,30.06,10.0,Variable,3.5,-,N/A,,Scattered Clouds,0,2013-05-31 15:51:00
12:51 PM,88.0,66.0,48,30.04,10.0,South,3.5,-,N/A,,Scattered Clouds,180,2013-05-31 16:51:00
1:51 PM,90.0,64.9,43,30.02,10.0,Calm,Calm,-,N/A,,Scattered Clouds,0,2013-05-31 17:51:00
2:51 PM,90.9,64.0,41,30.00,10.0,Calm,Calm,-,N/A,,Mostly Cloudy,0,2013-05-31 18:51:00
3:51 PM,91.0,66.0,44,29.98,10.0,South,8.1,-,N/A,,Mostly Cloudy,180,2013-05-31 19:51:00
4:51 PM,90.0,64.9,43,29.96,10.0,South,8.1,-,N/A,,Scattered Clouds,180,2013-05-31 20:51:00
5:51 PM,90.0,64.9,43,29.94,10.0,South,9.2,-,N/A,,Scattered Clouds,180,2013-05-31 21:51:00
6:51 PM,89.1,64.0,43,29.92,10.0,South,6.9,-,N/A,,Scattered Clouds,170,2013-05-31 22:51:00
7:51 PM,86.0,62.1,44,29.92,10.0,South,8.1,-,N/A,,Scattered Clouds,180,2013-05-31 23:51:00
8:51 PM,82.9,64.0,53,29.93,10.0,South,6.9,-,N/A,,Scattered Clouds,170,2013-06-01 00:51:00
9:51 PM,80.1,64.0,58,29.95,10.0,South,5.8,-,N/A,,Clear,180,2013-06-01 01:51:00
10:51 PM,77.0,64.0,64,29.96,10.0,South,4.6,-,N/A,,Clear,180,2013-06-01 02:51:00
11:51 PM,73.9,64.0,71,29.96,10.0,South,5.8,-,N/A,,Clear,190,2013-06-01 03:51:00